Tracking 27111 objects as of 29-Mar-2023
HD Live streaming from Space Station
objects crossing your sky now

SAUDISAT 3

Track SAUDISAT 3 now!
10-day predictions
SAUDISAT 3 is classified as:


NORAD ID: 31118
Int'l Code: 2007-012B
Perigee: 658.6 km
Apogee: 680.4 km
Inclination: 98.0 °
Period: 98.0 minutes
Semi major axis: 7040 km
RCS: 0.633 m2 (medium)
Launch date: April 17, 2007
Source: Saudi Arabia (SAUD)
Launch site: TYURATAM MISSILE AND SPACE COMPLEX (TTMTR)
Your satellite tracking list
Your tracking list is empty




NASA's NSSDC Master Catalog

Two Line Element Set (TLE):
1 31118U 07012B   23087.39860675  .00000917  00000-0  16228-3 0  9997
2 31118  98.0055  33.1608 0015504  17.2535 342.9194 14.69596194854803
Source of the keplerian elements: AFSPC